THOR ABLESTAR DEB, 2620

Orbit data source: Space-Track

THOR ABLESTAR DEB, 2620 is space debris in LEO originally from a launch on Thu, 05 Dec 1963 UTC launched from the Air Force Western Test Range (AFWTR). Debris objects in space refer to the collection of defunct objects orbiting the Earth. Examples of debris include non-operational satellites, rocket bodies, and fragments generated from explosions, collisions, or faulty payload assembly.

Loading next visibility...
Identifier
2620, 1963-049H
Orbit
LEO
Country
Flag of USUS
Related business
Manufacturer
Unknown
Mission
Spacecraft
Bus & Motor
Unknown
Mass
Unknown
Launch date (UTC)
1963-12-05 (63 years ago)
Launch vehicle
Unknown
Launch site
Air Force Western Test Range (AFWTR)
Object type
Payload
Rocket body
Debris
Shape & HBR
Unknown shape, 0.1 m
Radar Cross Section
Medium (>0.1 m² and <1 m²)

Expand to show TLE details & history
Last TLE update: 15 hours ago

TLE from 15 hours ago
0 THOR ABLESTAR DEB
1  2620U 63049H   26199.62435843  .00000175  00000-0  22204-3 0  9990
2  2620  89.9161  72.2227 0015672  11.8854  16.5491 13.59768167 94660
Epoch: 2026-07-18T14:59Z
TLE epoch observation values (Epoch: 2026-07-18T14:59:04.568Z)
Latitude
28.52751°
Longitude
-88.9354°
Altitude
1,028.985 km
Speed
7.345 km/s
True Right ascension
04h 49m 04s
True Declination
28° 23' 19"
Sunlit
Object was in daylight at epoch
Visualization orbit readout
Latitude
Unknown
Longitude
Unknown
Altitude
Unknown
Speed
Unknown
Apparent Right ascension
Unknown
Apparent Declination
Unknown
Sunlit
N/A
Visualization observer readout
Local Sidereal Time
19:07:52
Azimuth
Unknown
Elevation
Unknown
Doppler factor
Unknown
Orbital elements
Apogee altitude
1,045.186 km
Perigee altitude
1,021.955 km
Semi-major axis
7,411.707 km
Eccentricity
0.00157
Inclination
89.9161°
RAAN
72.2227°
Arg. of periapsis
11.8854°
True anomaly
16.60035°
Mean anomaly
16.5491°
Eccentric anomaly
16.57472°
Mean motion
3.40146 °/min
Orbital period
105.84 mins
BSTAR
0.00022204
Loading maneuver chart data...
Computing Atmospheric mass density...
Loading historical data...
Loading historical data...
Loading historical data...
Loading historical data...
Loading historical data...
Loading historical data...
Loading historical data...

Documentation

Showing up to 5 results
|